• In Belarus
  • List of Countries
  • For 7 days
  • Water Temperature
  • Satellite Maps
  • Weather Map
  • Weather Widgets
  • user-avatar
    Login

    Hourly Weather Srednie Marmyzhi

    Today, 22 April, Monday

    Time Temperature Precipitation Wind Pressure Humidity
    00:00 +9°C° 0 mm 1 mps 753 mmHg 45%
    01:00 +9°C° 0 mm 1 mps 753 mmHg 46%
    02:00 +7°C° 0 mm 0 mps 753 mmHg 47%
    03:00 +8°C° 0 mm 1 mps 753 mmHg 49%
    04:00 +8°C° 0 mm 1 mps 753 mmHg 51%
    05:00 +8°C° 0 mm 1 mps 753 mmHg 53%
    06:00 +9°C° 0 mm 1 mps 753 mmHg 49%
    07:00 +11°C° 0 mm 1 mps 753 mmHg 45%
    08:00 +14°C° 0 mm 2 mps 754 mmHg 41%
    09:00 +15°C° 0 mm 2 mps 754 mmHg 37%
    10:00 +16°C° 0 mm 2 mps 754 mmHg 32%
    11:00 +17°C° 0 mm 2 mps 754 mmHg 28%
    12:00 +17°C° 0 mm 2 mps 754 mmHg 28%
    13:00 +17°C° 0 mm 2 mps 754 mmHg 29%
    14:00 +17°C° 0 mm 2 mps 753 mmHg 29%
    15:00 +17°C° 0 mm 2 mps 753 mmHg 31%
    16:00 +17°C° 0 mm 2 mps 753 mmHg 34%
    17:00 +17°C° 0 mm 2 mps 753 mmHg 36%
    18:00 +15°C° 0 mm 2 mps 753 mmHg 39%
    19:00 +14°C° 0 mm 1 mps 753 mmHg 43%
    20:00 +12°C° 0 mm 1 mps 753 mmHg 47%
    21:00 +12°C° 0 mm 1 mps 754 mmHg 48%
    22:00 +10°C° 0 mm 0 mps 754 mmHg 49%
    23:00 +10°C° 0 mm 0 mps 754 mmHg 50%

    Tomorrow, 23 April, Tuesday

    Time Temperature Precipitation Wind Pressure Humidity
    00:00 +11°C° 0 mm 1 mps 754 mmHg 50%
    01:00 +11°C° 0 mm 1 mps 754 mmHg 51%
    02:00 +11°C° 0 mm 1 mps 754 mmHg 51%
    03:00 +11°C° 0 mm 1 mps 754 mmHg 52%
    04:00 +11°C° 0 mm 1 mps 754 mmHg 54%
    05:00 +10°C° 0 mm 1 mps 755 mmHg 55%
    06:00 +12°C° 0 mm 2 mps 755 mmHg 53%
    07:00 +13°C° 0 mm 2 mps 755 mmHg 51%
    08:00 +14°C° 0 mm 2 mps 755 mmHg 49%
    09:00 +14°C° 0 mm 3 mps 755 mmHg 44%
    10:00 +16°C° 0 mm 3 mps 755 mmHg 39%
    11:00 +18°C° 0 mm 3 mps 755 mmHg 34%
    12:00 +18°C° 0 mm 3 mps 754 mmHg 34%
    13:00 +18°C° 0 mm 4 mps 754 mmHg 34%
    14:00 +19°C° 0 mm 4 mps 754 mmHg 34%
    15:00 +18°C° 0 mm 4 mps 754 mmHg 37%
    16:00 +18°C° 0 mm 4 mps 753 mmHg 39%
    17:00 +18°C° 0 mm 3 mps 753 mmHg 42%
    18:00 +16°C° 0 mm 3 mps 753 mmHg 47%
    19:00 +14°C° 0 mm 3 mps 753 mmHg 51%
    20:00 +13°C° 0 mm 3 mps 754 mmHg 56%
    21:00 +13°C° 0 mm 3 mps 754 mmHg 58%
    22:00 +12°C° 0 mm 3 mps 754 mmHg 59%
    23:00 +13°C° 0 mm 2 mps 754 mmHg 61%

    Day after tomorrow, 24 April, Wednesday

    Time Temperature Precipitation Wind Pressure Humidity
    00:00 +13°C° 0 mm 2 mps 754 mmHg 62%
    01:00 +12°C° 0 mm 2 mps 754 mmHg 62%
    02:00 +12°C° 0 mm 2 mps 754 mmHg 63%
    03:00 +10°C° 0 mm 3 mps 754 mmHg 66%
    04:00 +10°C° 0 mm 3 mps 754 mmHg 69%
    05:00 +9°C° 0 mm 3 mps 754 mmHg 72%
    06:00 +11°C° 0 mm 3 mps 754 mmHg 67%
    07:00 +13°C° 0 mm 3 mps 754 mmHg 61%
    08:00 +14°C° 0 mm 3 mps 754 mmHg 56%
    09:00 +17°C° 0 mm 4 mps 754 mmHg 51%
    10:00 +18°C° 0 mm 4 mps 754 mmHg 46%
    11:00 +19°C° 0 mm 4 mps 754 mmHg 41%
    12:00 +20°C° 0 mm 4 mps 754 mmHg 39%
    13:00 +20°C° 0 mm 4 mps 753 mmHg 37%
    14:00 +21°C° 0 mm 4 mps 753 mmHg 36%
    15:00 +21°C° 0 mm 4 mps 753 mmHg 38%
    16:00 +20°C° 0 mm 4 mps 753 mmHg 40%
    17:00 +20°C° 0 mm 3 mps 753 mmHg 42%
    18:00 +19°C° 0 mm 3 mps 753 mmHg 47%
    19:00 +17°C° 0 mm 3 mps 753 mmHg 51%
    20:00 +15°C° 0 mm 2 mps 753 mmHg 56%
    21:00 +15°C° 0 mm 2 mps 753 mmHg 58%
    22:00 +14°C° 0 mm 2 mps 753 mmHg 60%
    23:00 +13°C° 0 mm 2 mps 753 mmHg 62%

    25 April, Thursday

    Time Temperature Precipitation Wind Pressure Humidity
    00:00 +13°C° 0 mm 2 mps 753 mmHg 63%
    01:00 +12°C° 0 mm 2 mps 753 mmHg 65%
    02:00 +12°C° 0 mm 2 mps 753 mmHg 67%
    03:00 +12°C° 0 mm 2 mps 754 mmHg 68%
    04:00 +10°C° 0 mm 2 mps 754 mmHg 70%
    05:00 +10°C° 0 mm 2 mps 754 mmHg 71%
    06:00 +13°C° 0 mm 2 mps 754 mmHg 66%
    07:00 +15°C° 0 mm 2 mps 754 mmHg 60%
    08:00 +17°C° 0 mm 2 mps 754 mmHg 54%
    09:00 +18°C° 0 mm 2 mps 754 mmHg 49%
    10:00 +20°C° 0 mm 3 mps 754 mmHg 45%
    11:00 +21°C° 0 mm 3 mps 753 mmHg 40%
    12:00 +21°C° 0 mm 3 mps 753 mmHg 39%
    13:00 +22°C° 0 mm 3 mps 753 mmHg 37%
    14:00 +22°C° 0 mm 3 mps 753 mmHg 36%
    15:00 +23°C° 0 mm 2 mps 752 mmHg 37%
    16:00 +23°C° 0 mm 2 mps 752 mmHg 39%
    17:00 +23°C° 0 mm 2 mps 752 mmHg 41%
    18:00 +20°C° 0 mm 2 mps 752 mmHg 45%
    19:00 +19°C° 0 mm 1 mps 752 mmHg 49%
    20:00 +18°C° 0 mm 1 mps 752 mmHg 53%
    21:00 +16°C° 0 mm 1 mps 752 mmHg 54%
    22:00 +14°C° 0 mm 0 mps 752 mmHg 55%
    23:00 +14°C° 0 mm 0 mps 752 mmHg 56%

    26 April, Friday

    Time Temperature Precipitation Wind Pressure Humidity
    00:00 +14°C° 0 mm 0 mps 752 mmHg 56%
    01:00 +14°C° 0 mm 0 mps 752 mmHg 56%
    02:00 +14°C° 0 mm 0 mps 752 mmHg 56%
    03:00 +14°C° 0 mm 0 mps 752 mmHg 57%
    04:00 +14°C° 0 mm 0 mps 752 mmHg 58%
    05:00 +14°C° 0 mm 0 mps 752 mmHg 58%
    06:00 +16°C° 0 mm 1 mps 752 mmHg 55%
    07:00 +18°C° 0 mm 1 mps 752 mmHg 52%
    08:00 +19°C° 0 mm 2 mps 752 mmHg 49%
    09:00 +20°C° 0 mm 2 mps 752 mmHg 46%
    10:00 +21°C° 0 mm 2 mps 751 mmHg 44%
    11:00 +22°C° 0 mm 3 mps 751 mmHg 41%
    12:00 +21°C° 0 mm 3 mps 751 mmHg 42%
    13:00 +21°C° 0 mm 3 mps 751 mmHg 43%
    14:00 +21°C° 0 mm 3 mps 750 mmHg 45%
    15:00 +21°C° 0.1 mm 3 mps 750 mmHg 46%
    16:00 +21°C° 0.1 mm 3 mps 750 mmHg 48%
    17:00 +21°C° 0.1 mm 3 mps 750 mmHg 49%
    18:00 +19°C° 0.6 mm 2 mps 750 mmHg 56%
    19:00 +18°C° 0.6 mm 2 mps 750 mmHg 62%
    20:00 +18°C° 0.6 mm 1 mps 750 mmHg 68%
    21:00 +16°C° 0.3 mm 1 mps 749 mmHg 71%
    22:00 +15°C° 0.3 mm 1 mps 749 mmHg 74%
    23:00 +14°C° 0.3 mm 1 mps 749 mmHg 77%

    27 April, Saturday

    Time Temperature Precipitation Wind Pressure Humidity
    00:00 +14°C° 0.3 mm 1 mps 749 mmHg 79%
    01:00 +13°C° 0.3 mm 1 mps 749 mmHg 81%
    02:00 +13°C° 0.3 mm 1 mps 748 mmHg 83%
    03:00 +13°C° 0.2 mm 1 mps 748 mmHg 83%
    04:00 +13°C° 0.2 mm 1 mps 748 mmHg 83%
    05:00 +13°C° 0.2 mm 1 mps 748 mmHg 83%
    06:00 +14°C° 0.2 mm 2 mps 748 mmHg 76%
    07:00 +16°C° 0.2 mm 2 mps 748 mmHg 70%
    08:00 +18°C° 0.2 mm 2 mps 748 mmHg 63%
    09:00 +19°C° 0.1 mm 3 mps 748 mmHg 57%
    10:00 +20°C° 0.1 mm 3 mps 748 mmHg 51%
    11:00 +21°C° 0.1 mm 4 mps 747 mmHg 45%
    12:00 +21°C° 0 mm 4 mps 747 mmHg 46%
    13:00 +21°C° 0 mm 4 mps 747 mmHg 47%
    14:00 +21°C° 0 mm 4 mps 747 mmHg 48%
    15:00 +20°C° 0 mm 3 mps 746 mmHg 50%
    16:00 +20°C° 0 mm 3 mps 746 mmHg 53%
    17:00 +20°C° 0 mm 2 mps 746 mmHg 55%
    18:00 +18°C° 0.4 mm 2 mps 746 mmHg 61%
    19:00 +17°C° 0.4 mm 2 mps 746 mmHg 66%
    20:00 +15°C° 0.4 mm 2 mps 746 mmHg 72%
    21:00 +14°C° 0.4 mm 3 mps 746 mmHg 75%
    22:00 +13°C° 0.4 mm 3 mps 746 mmHg 78%
    23:00 +13°C° 0.4 mm 3 mps 746 mmHg 81%
    Show more